Location: Lake Almanor
(40.2485°N, 121.1442°W)
Time: 18:06:24
(UTC-08:00)

STARLINK-1121 - Pass Details

Date: 27 January 2020
Orbit: 531 x 532 km, 53.0° (Epoch: 17 February)

Event Time Altitude Azimuth Distance (km) Brightness Sun altitude
Rises 18:42:36 0° 314° (NW) 2,651 7.6 -16.4°
Reaches altitude 10° 18:45:11 10° 329° (NNW) 1,757 6.4 -16.9°
Maximum altitude 18:48:23 23° 23° (NNE) 1,151 4.9 -17.5°
Enters shadow 18:48:25 23° 24° (NNE) 1,151 4.9 -17.5°
